When you browse on this site, cookies collect data to enhance your experience and personalize the content and advertising you see.
Visit our Privacy Policy to learn more. By continuing to use the site, you agree to this use of cookies and data.

Hourly Weather Ganja

Today, 8 July, Wednesday

Time Temperature Precipitation Wind Pressure Humidity
00:00 +27°C° 0 mm 3 mps 721 mmHg 35%
01:00 +26°C° 0 mm 2 mps 721 mmHg 37%
02:00 +26°C° 0 mm 2 mps 721 mmHg 39%
03:00 +25°C° 0 mm 1 mps 721 mmHg 41%
04:00 +26°C° 0 mm 1 mps 721 mmHg 42%
05:00 +26°C° 0 mm 1 mps 721 mmHg 43%
06:00 +27°C° 0 mm 1 mps 721 mmHg 44%
07:00 +28°C° 0 mm 1 mps 721 mmHg 40%
08:00 +29°C° 0 mm 1 mps 721 mmHg 37%
09:00 +31°C° 0 mm 2 mps 721 mmHg 34%
10:00 +32°C° 0 mm 2 mps 720 mmHg 32%
11:00 +34°C° 0 mm 2 mps 720 mmHg 30%
12:00 +36°C° 0 mm 2 mps 720 mmHg 28%
13:00 +36°C° 0.1 mm 2 mps 720 mmHg 27%
14:00 +37°C° 0.1 mm 2 mps 719 mmHg 27%
15:00 +38°C° 0.1 mm 2 mps 719 mmHg 26%
16:00 +38°C° 0 mm 2 mps 719 mmHg 27%
17:00 +37°C° 0 mm 2 mps 719 mmHg 29%
18:00 +37°C° 0 mm 3 mps 719 mmHg 31%
19:00 +35°C° 0.1 mm 3 mps 719 mmHg 34%
20:00 +34°C° 0.1 mm 2 mps 720 mmHg 37%
21:00 +31°C° 0.1 mm 2 mps 720 mmHg 40%
22:00 +30°C° 0 mm 2 mps 720 mmHg 45%
23:00 +29°C° 0 mm 3 mps 720 mmHg 49%

Tomorrow, 9 July, Thursday

Time Temperature Precipitation Wind Pressure Humidity
00:00 +28°C° 0 mm 3 mps 721 mmHg 53%
01:00 +27°C° 0 mm 3 mps 721 mmHg 54%
02:00 +27°C° 0 mm 3 mps 721 mmHg 56%
03:00 +26°C° 0 mm 4 mps 721 mmHg 58%
04:00 +26°C° 0 mm 4 mps 721 mmHg 58%
05:00 +27°C° 0 mm 4 mps 721 mmHg 58%
06:00 +27°C° 0 mm 5 mps 721 mmHg 57%
07:00 +28°C° 0.2 mm 5 mps 721 mmHg 54%
08:00 +30°C° 0.2 mm 6 mps 721 mmHg 50%
09:00 +32°C° 0.2 mm 6 mps 722 mmHg 47%
10:00 +33°C° 0.1 mm 6 mps 721 mmHg 43%
11:00 +34°C° 0.1 mm 5 mps 721 mmHg 40%
12:00 +36°C° 0.1 mm 4 mps 721 mmHg 36%
13:00 +36°C° 0.1 mm 4 mps 721 mmHg 35%
14:00 +37°C° 0.1 mm 3 mps 721 mmHg 34%
15:00 +37°C° 0.1 mm 2 mps 720 mmHg 33%
16:00 +36°C° 0.5 mm 3 mps 721 mmHg 37%
17:00 +35°C° 0.5 mm 4 mps 721 mmHg 40%
18:00 +34°C° 0.5 mm 4 mps 721 mmHg 44%
19:00 +33°C° 0.7 mm 4 mps 722 mmHg 47%
20:00 +30°C° 0.7 mm 3 mps 722 mmHg 50%
21:00 +29°C° 0.7 mm 3 mps 723 mmHg 53%
22:00 +28°C° 0.1 mm 3 mps 723 mmHg 56%
23:00 +27°C° 0.1 mm 3 mps 723 mmHg 59%

Day after tomorrow, 10 July, Friday

Time Temperature Precipitation Wind Pressure Humidity
00:00 +26°C° 0.1 mm 3 mps 723 mmHg 62%
01:00 +26°C° 0 mm 3 mps 723 mmHg 63%
02:00 +26°C° 0 mm 3 mps 723 mmHg 63%
03:00 +26°C° 0 mm 3 mps 723 mmHg 63%
04:00 +26°C° 0.1 mm 3 mps 723 mmHg 64%
05:00 +26°C° 0.1 mm 3 mps 724 mmHg 66%
06:00 +26°C° 0.1 mm 3 mps 724 mmHg 67%
07:00 +27°C° 0.1 mm 3 mps 724 mmHg 64%
08:00 +28°C° 0.1 mm 3 mps 724 mmHg 61%
09:00 +29°C° 0.1 mm 4 mps 724 mmHg 58%
10:00 +30°C° 0.1 mm 3 mps 724 mmHg 56%
11:00 +30°C° 0.1 mm 2 mps 724 mmHg 53%
12:00 +31°C° 0.1 mm 2 mps 723 mmHg 51%
13:00 +32°C° 0 mm 2 mps 723 mmHg 48%
14:00 +34°C° 0 mm 3 mps 723 mmHg 44%
15:00 +35°C° 0 mm 3 mps 723 mmHg 41%
16:00 +35°C° 0.2 mm 3 mps 723 mmHg 43%
17:00 +34°C° 0.2 mm 3 mps 723 mmHg 46%
18:00 +33°C° 0.2 mm 3 mps 723 mmHg 48%
19:00 +32°C° 0.2 mm 4 mps 724 mmHg 49%
20:00 +30°C° 0.2 mm 4 mps 724 mmHg 50%
21:00 +29°C° 0.2 mm 4 mps 725 mmHg 52%
22:00 +28°C° 0.1 mm 4 mps 725 mmHg 53%
23:00 +28°C° 0.1 mm 4 mps 725 mmHg 54%

11 July, Saturday

Time Temperature Precipitation Wind Pressure Humidity
00:00 +27°C° 0.1 mm 4 mps 725 mmHg 55%
01:00 +26°C° 0 mm 3 mps 725 mmHg 60%
02:00 +26°C° 0 mm 2 mps 725 mmHg 65%
03:00 +25°C° 0 mm 2 mps 724 mmHg 71%
04:00 +25°C° 0 mm 2 mps 725 mmHg 70%
05:00 +25°C° 0 mm 2 mps 725 mmHg 70%
06:00 +25°C° 0 mm 2 mps 725 mmHg 70%
07:00 +27°C° 0 mm 2 mps 725 mmHg 67%
08:00 +28°C° 0 mm 2 mps 725 mmHg 63%
09:00 +29°C° 0 mm 2 mps 725 mmHg 60%
10:00 +30°C° 0 mm 2 mps 725 mmHg 55%
11:00 +31°C° 0 mm 2 mps 725 mmHg 51%
12:00 +32°C° 0 mm 2 mps 724 mmHg 46%
13:00 +34°C° 0 mm 3 mps 724 mmHg 43%
14:00 +34°C° 0 mm 3 mps 724 mmHg 40%
15:00 +35°C° 0 mm 4 mps 723 mmHg 37%
16:00 +35°C° 0.1 mm 3 mps 723 mmHg 40%
17:00 +34°C° 0.1 mm 3 mps 723 mmHg 42%
18:00 +34°C° 0.1 mm 3 mps 723 mmHg 44%
19:00 +31°C° 0.2 mm 3 mps 723 mmHg 47%
20:00 +30°C° 0.2 mm 3 mps 724 mmHg 50%
21:00 +29°C° 0.2 mm 3 mps 724 mmHg 52%
22:00 +28°C° 0.3 mm 3 mps 724 mmHg 54%
23:00 +28°C° 0.3 mm 3 mps 723 mmHg 56%

12 July, Sunday

Time Temperature Precipitation Wind Pressure Humidity
00:00 +27°C° 0.3 mm 3 mps 723 mmHg 58%
01:00 +27°C° 0.1 mm 2 mps 723 mmHg 60%
02:00 +26°C° 0.1 mm 2 mps 723 mmHg 61%
03:00 +25°C° 0.1 mm 2 mps 723 mmHg 63%
04:00 +26°C° 0.1 mm 2 mps 722 mmHg 64%
05:00 +26°C° 0.1 mm 2 mps 722 mmHg 65%
06:00 +26°C° 0.1 mm 1 mps 722 mmHg 66%
07:00 +27°C° 0 mm 2 mps 723 mmHg 62%
08:00 +28°C° 0 mm 2 mps 723 mmHg 59%
09:00 +29°C° 0 mm 2 mps 723 mmHg 56%
10:00 +30°C° 0 mm 2 mps 723 mmHg 51%
11:00 +31°C° 0 mm 2 mps 722 mmHg 47%
12:00 +34°C° 0 mm 2 mps 722 mmHg 43%
13:00 +34°C° 0 mm 2 mps 722 mmHg 40%
14:00 +35°C° 0 mm 3 mps 721 mmHg 38%
15:00 +35°C° 0 mm 3 mps 721 mmHg 36%
16:00 +35°C° 0 mm 2 mps 721 mmHg 37%
17:00 +34°C° 0 mm 2 mps 721 mmHg 38%
18:00 +34°C° 0 mm 2 mps 720 mmHg 40%
19:00 +32°C° 0 mm 2 mps 721 mmHg 43%
20:00 +30°C° 0 mm 3 mps 721 mmHg 47%
21:00 +29°C° 0 mm 3 mps 721 mmHg 50%
22:00 +28°C° 0 mm 3 mps 721 mmHg 51%
23:00 +28°C° 0 mm 3 mps 721 mmHg 53%

13 July, Monday

Time Temperature Precipitation Wind Pressure Humidity
00:00 +27°C° 0 mm 3 mps 721 mmHg 54%
01:00 +27°C° 0 mm 2 mps 721 mmHg 57%
02:00 +26°C° 0 mm 2 mps 721 mmHg 59%
03:00 +26°C° 0 mm 2 mps 720 mmHg 61%
04:00 +26°C° 0 mm 1 mps 720 mmHg 62%
05:00 +26°C° 0 mm 1 mps 720 mmHg 63%
06:00 +26°C° 0 mm 1 mps 720 mmHg 63%
07:00 +27°C° 0.1 mm 2 mps 720 mmHg 64%
08:00 +27°C° 0.1 mm 3 mps 720 mmHg 65%
09:00 +27°C° 0.1 mm 3 mps 720 mmHg 66%
10:00 +28°C° 0.2 mm 3 mps 720 mmHg 63%
11:00 +29°C° 0.2 mm 2 mps 719 mmHg 61%
12:00 +30°C° 0.2 mm 1 mps 719 mmHg 58%
13:00 +31°C° 0.1 mm 1 mps 719 mmHg 54%
14:00 +32°C° 0.1 mm 2 mps 719 mmHg 50%
15:00 +34°C° 0.1 mm 2 mps 718 mmHg 46%
16:00 +34°C° 0.2 mm 2 mps 718 mmHg 46%
17:00 +32°C° 0.2 mm 1 mps 718 mmHg 47%
18:00 +32°C° 0.2 mm 1 mps 718 mmHg 47%
19:00 +31°C° 0.9 mm 2 mps 719 mmHg 52%
20:00 +29°C° 0.9 mm 3 mps 719 mmHg 58%
21:00 +28°C° 0.9 mm 4 mps 720 mmHg 64%
22:00 +27°C° 0.4 mm 3 mps 720 mmHg 64%
23:00 +27°C° 0.4 mm 3 mps 720 mmHg 65%
Show more